Location: Prostejov
(49.4670°N, 17.1170°E)
Time: 09:50:26
(UTC+02:00)

ISS - Visible Passes

Search period start: 20 October 2021 00:00
Search period end: 30 October 2021 00:00
Orbit: 417 x 423 km, 51.6° (Epoch: 20 October)

Date Brightness Start Highest point End Pass type
(mag) Time Alt. Az. Time Alt. Az. Time Alt. Az.
21 Oct -0.6 06:15:37 10° SSE 06:16:47 11° SE 06:17:57 10° ESE visible
23 Oct -1.7 06:16:05 10° SSW 06:18:55 25° SE 06:21:47 10° E visible
24 Oct -1.2 05:29:55 11° S 05:31:59 18° SE 05:34:19 10° E visible
25 Oct -0.7 04:45:16 12° SE 04:45:16 12° SE 04:46:25 10° ESE visible
25 Oct -3.1 06:18:17 12° SW 06:21:21 54° SSE 06:24:39 10° ENE visible
26 Oct -2.6 05:33:31 31° S 05:34:21 38° SSE 05:37:31 10° E visible
27 Oct -1.3 04:48:39 21° ESE 04:48:39 21° ESE 04:50:19 10° E visible
27 Oct -3.8 06:21:40 18° WSW 06:24:02 84° NNW 06:27:25 10° ENE visible
28 Oct -3.8 05:36:44 69° SSW 05:37:01 76° SSE 05:40:23 10° ENE visible
29 Oct -1.4 04:51:47 25° E 04:51:47 25° E 04:53:22 10° ENE visible
29 Oct -3.6 06:24:47 20° W 06:26:55 61° N 06:30:16 10° ENE visible
